Flag for U.S.A. Weather past 2 weeks in Farmington, New Mexico, U.S.A.

Now
44 °F

Clear.


Feels Like: 43 °F
Forecast: 43 / 74 °F
Wind: 3 mph from Northwest

Location: Four Corners Regional Airport


UV Index: 5 (Moderate)

Visibility: 10 mi


Pressure: 29.99 "Hg

Humidity: 63%

Dew point: 32 °F

Location of FarmingtonLocation

Historic Weather in Farmington

°F

Farmington temperature yesterday

Maximum temperature yesterday: 68 °F (at 2:53 PM)
Minimum temperature yesterday: 44 °F (at 5:53 AM)
Average temperature yesterday: 57 °F

Past Weeks' High & Low Weather Summary

 TemperatureHumidityPressure
High77 °F (Apr 11, 2:53 PM)90% (Apr 19, 6:53 AM)30.30 "Hg (Apr 19, 6:53 AM)
Low23 °F (Apr 15, 5:53 AM)4% (Apr 10, 5:53 PM)29.59 "Hg (Apr 12, 4:53 PM)
Average51 °F30%29.96 "Hg
* Reported Apr 5 3:53 AM — Apr 20 3:53 AM, Farmington, Weather by CustomWeather, © 2014

Note: Actual official high and low records may vary slightly from our data, if they occured in-between our weather recording intervals... More about our weather records

Advertising

Historic Weather Conditions — Data for Previous 24 hours

 ConditionsComfort  
Time TempWeatherWind HumidityBarometerVisibility
3:53 AM
Apr 20
48 °FClear.5 mph56%29.98 "Hg10 mi
2:53 AM49 °FClear.No wind57%29.97 "Hg10 mi
1:53 AM50 °FClear.7 mph54%29.98 "Hg10 mi
12:53 AM52 °FClear.5 mph50%29.97 "Hg10 mi
11:53 PM
Apr 19
53 °FClear.3 mph51%29.97 "Hg10 mi
10:53 PM54 °FPassing clouds.5 mph49%29.96 "Hg10 mi
9:53 PM58 °FOvercast.14 mph44%29.96 "Hg10 mi
8:53 PM61 °FClear.7 mph31%29.94 "Hg10 mi
7:53 PM64 °FSunny.10 mph27%29.93 "Hg10 mi
6:53 PM66 °FSunny.No wind23%29.92 "Hg10 mi
5:53 PM68 °FSunny.5 mph23%29.92 "Hg10 mi
4:53 PM67 °FSunny.6 mph24%29.92 "Hg10 mi
3:53 PM67 °FPassing clouds.N/A26%29.91 "Hg10 mi
2:53 PM68 °FPassing clouds.6 mph27%29.93 "Hg10 mi
1:53 PM64 °FPartly sunny.6 mph32%29.96 "Hg10 mi
12:53 PM64 °FPassing clouds.No wind33%29.97 "Hg10 mi
11:53 AM63 °FPassing clouds.No wind37%30.01 "Hg10 mi
10:53 AM61 °FSunny.6 mph41%30.02 "Hg10 mi
9:53 AM58 °FSunny.5 mph50%30.02 "Hg10 mi
8:53 AM53 °FPassing clouds.8 mph72%30.02 "Hg10 mi
7:53 AM48 °FPartly sunny.8 mph83%30.03 "Hg10 mi
6:53 AM45 °FPartly cloudy.6 mph90%30.01 "Hg10 mi
5:53 AM44 °FClear.5 mph89%30.00 "Hg10 mi
Weather by CustomWeather, © 2014

See weather overview